| time (UTC) | temp F | wind direction | speed MPH | gust MPH | rain 1hr in | rain 24hr in | rain mn in | humidity % | barometer mb |
| 20260508141204 | 64 | 200 | 3.0 | 3.0 | 0.00 | 0.00 | 0.00 | 37 | 1014.2 |
| 20260508140704 | 63 | 191 | 2.0 | 3.0 | 0.00 | 0.00 | 0.00 | 37 | 1014.2 |
| 20260508140204 | 63 | 202 | 2.0 | 3.0 | 0.00 | 0.00 | 0.00 | 40 | 1014.3 |
| 20260508135704 | 63 | 327 | 0.0 | 2.0 | 0.00 | 0.00 | 0.00 | 39 | 1014.4 |
| 20260508135204 | 62 | 333 | 2.0 | 3.0 | 0.00 | 0.00 | 0.00 | 40 | 1014.4 |
| 20260508134704 | 62 | 212 | 3.0 | 7.0 | 0.00 | 0.00 | 0.00 | 43 | 1014.4 |
| 20260508134204 | 62 | 260 | 1.0 | 3.0 | 0.00 | 0.00 | 0.00 | 41 | 1014.4 |
| 20260508133704 | 62 | 82 | 0.0 | 3.0 | 0.00 | 0.00 | 0.00 | 40 | 1014.4 |
| 20260508133204 | 62 | 350 | 2.0 | 5.0 | 0.00 | 0.00 | 0.00 | 40 | 1014.4 |
| 20260508132704 | 62 | 305 | 3.0 | 6.0 | 0.00 | 0.00 | 0.00 | 42 | 1014.5 |
| 20260508132204 | 62 | 83 | 1.0 | 3.0 | 0.00 | 0.00 | 0.00 | 43 | 1014.5 |
| 20260508131204 | 61 | 358 | 3.0 | 7.0 | 0.00 | 0.00 | 0.00 | 46 | 1014.5 |
| 20260508130204 | 61 | 356 | 3.0 | 5.0 | 0.00 | 0.00 | 0.00 | 48 | 1014.6 |
| 20260508125704 | 61 | 51 | 3.0 | 5.0 | 0.00 | 0.00 | 0.00 | 50 | 1014.4 |
| 20260508125204 | 60 | 62 | 0.0 | 1.0 | 0.00 | 0.00 | 0.00 | 50 | 1014.4 |
| 20260508124704 | 60 | 335 | 1.0 | 5.0 | 0.00 | 0.00 | 0.00 | 50 | 1014.5 |
| 20260508124204 | 60 | 271 | 1.0 | 2.0 | 0.00 | 0.00 | 0.00 | 51 | 1014.4 |
| 20260508123203 | 59 | 7 | 3.0 | 5.0 | 0.00 | 0.00 | 0.00 | 51 | 1014.3 |
| 20260508122704 | 59 | 350 | 2.0 | 5.0 | 0.00 | 0.00 | 0.00 | 53 | 1014.3 |
| 20260508122205 | 59 | 354 | 2.0 | 5.0 | 0.00 | 0.00 | 0.00 | 52 | 1014.3 |
| 20260508121704 | 59 | 359 | 3.0 | 7.0 | 0.00 | 0.00 | 0.00 | 55 | 1014.3 |
| 20260508121204 | 59 | 346 | 2.0 | 3.0 | 0.00 | 0.00 | 0.00 | 55 | 1014.1 |
| 20260508120704 | 58 | 295 | 1.0 | 3.0 | 0.00 | 0.00 | 0.00 | 56 | 1014.2 |
| 20260508120204 | 58 | 326 | 2.0 | 3.0 | 0.00 | 0.00 | 0.00 | 56 | 1014.1 |
| 20260508115704 | 57 | 356 | 2.0 | 6.0 | 0.00 | 0.00 | 0.00 | 54 | 1014.0 |
| 20260508115204 | 57 | 327 | 1.0 | 3.0 | 0.00 | 0.00 | 0.00 | 56 | 1013.9 |
| 20260508114204 | 56 | 335 | 0.0 | 3.0 | 0.00 | 0.00 | 0.00 | 54 | 1013.9 |
| 20260508113204 | 55 | 25 | 0.0 | 3.0 | 0.00 | 0.00 | 0.00 | 59 | 1013.7 |
| 20260508112704 | 54 | 8 | 1.0 | 3.0 | 0.00 | 0.00 | 0.00 | 59 | 1013.7 |
| 20260508112203 | 53 | 338 | 0.0 | 2.0 | 0.00 | 0.00 | 0.00 | 62 | 1013.6 |
| 20260508111203 | 52 | 348 | 1.0 | 3.0 | 0.00 | 0.00 | 0.00 | 63 | 1013.4 |
| 20260508110704 | 52 | 357 | 2.0 | 3.0 | 0.00 | 0.00 | 0.00 | 64 | 1013.5 |
| 20260508110204 | 52 | 347 | 2.0 | 3.0 | 0.00 | 0.00 | 0.00 | 63 | 1013.4 |
| 20260508105704 | 52 | 9 | 1.0 | 3.0 | 0.00 | 0.00 | 0.00 | 64 | 1013.3 |
| 20260508105204 | 52 | 10 | 0.0 | 3.0 | 0.00 | 0.00 | 0.00 | 64 | 1013.2 |
| 20260508104704 | 52 | 352 | 1.0 | 3.0 | 0.00 | 0.00 | 0.00 | 63 | 1013.1 |
| 20260508104204 | 52 | 352 | 1.0 | 3.0 | 0.00 | 0.00 | 0.00 | 63 | 1013.1 |
| 20260508102704 | 52 | 1 | 0.0 | 3.0 | 0.00 | 0.01 | 0.00 | 62 | 1012.8 |
| 20260508102204 | 52 | 348 | 2.0 | 5.0 | 0.00 | 0.01 | 0.00 | 62 | 1012.8 |
| 20260508101704 | 52 | 350 | 1.0 | 6.0 | 0.00 | 0.01 | 0.00 | 62 | 1012.7 |
| 20260508101204 | 52 | 358 | 1.0 | 3.0 | 0.00 | 0.01 | 0.00 | 62 | 1012.6 |
| 20260508100704 | 52 | 347 | 1.0 | 3.0 | 0.00 | 0.01 | 0.00 | 62 | 1012.6 |
| 20260508100204 | 52 | 344 | 0.0 | 3.0 | 0.00 | 0.01 | 0.00 | 63 | 1012.7 |
| 20260508095205 | 53 | 351 | 1.0 | 5.0 | 0.00 | 0.01 | 0.00 | 62 | 1012.6 |
| 20260508094706 | 53 | 339 | 2.0 | 5.0 | 0.00 | 0.01 | 0.00 | 61 | 1012.5 |
| 20260508094205 | 53 | 4 | 1.0 | 5.0 | 0.00 | 0.01 | 0.00 | 61 | 1012.6 |
| 20260508093706 | 53 | 356 | 2.0 | 5.0 | 0.00 | 0.01 | 0.00 | 61 | 1012.6 |
| 20260508093205 | 53 | 344 | 1.0 | 6.0 | 0.00 | 0.01 | 0.00 | 62 | 1012.5 |
| 20260508092705 | 53 | 1 | 1.0 | 3.0 | 0.00 | 0.01 | 0.00 | 62 | 1012.5 |
| 20260508092205 | 52 | 353 | 4.0 | 9.0 | 0.00 | 0.01 | 0.00 | 64 | 1012.5 |
| 20260508091706 | 53 | 355 | 3.0 | 9.0 | 0.00 | 0.01 | 0.00 | 66 | 1012.4 |
| 20260508091205 | 53 | 0 | 3.0 | 7.0 | 0.00 | 0.01 | 0.00 | 67 | 1012.3 |
| 20260508085706 | 53 | 345 | 3.0 | 6.0 | 0.00 | 0.01 | 0.00 | 67 | 1012.0 |
| 20260508085205 | 53 | 337 | 2.0 | 5.0 | 0.00 | 0.01 | 0.00 | 68 | 1012.1 |
| 20260508084705 | 53 | 351 | 3.0 | 9.0 | 0.00 | 0.01 | 0.00 | 67 | 1011.9 |
| 20260508084205 | 53 | 334 | 5.0 | 12.0 | 0.00 | 0.01 | 0.00 | 68 | 1011.8 |
| 20260508083706 | 53 | 354 | 2.0 | 7.0 | 0.00 | 0.01 | 0.00 | 69 | 1011.8 |
| 20260508083205 | 53 | 339 | 2.0 | 9.0 | 0.00 | 0.01 | 0.00 | 70 | 1011.7 |
| 20260508082706 | 53 | 359 | 3.0 | 8.0 | 0.00 | 0.01 | 0.00 | 70 | 1011.6 |
| 20260508082206 | 53 | 343 | 1.0 | 8.0 | 0.00 | 0.01 | 0.00 | 71 | 1011.6 |
| 20260508081705 | 53 | 331 | 2.0 | 7.0 | 0.00 | 0.01 | 0.00 | 71 | 1011.6 |
| 20260508081205 | 52 | 351 | 3.0 | 7.0 | 0.00 | 0.01 | 0.00 | 74 | 1011.6 |
| 20260508080206 | 52 | 331 | 2.0 | 6.0 | 0.00 | 0.01 | 0.00 | 75 | 1011.4 |
| 20260508075705 | 52 | 324 | 3.0 | 8.0 | 0.00 | 0.01 | 0.00 | 77 | 1011.3 |
| 20260508075205 | 52 | 319 | 3.0 | 9.0 | 0.00 | 0.01 | 0.00 | 78 | 1011.2 |
| 20260508074706 | 52 | 347 | 2.0 | 9.0 | 0.00 | 0.01 | 0.00 | 80 | 1011.2 |
| 20260508073705 | 52 | 334 | 3.0 | 12.0 | 0.00 | 0.01 | 0.00 | 82 | 1010.9 |
| 20260508073206 | 52 | 340 | 3.0 | 9.0 | 0.00 | 0.01 | 0.00 | 84 | 1010.8 |
| 20260508072705 | 52 | 343 | 0.0 | 3.0 | 0.00 | 0.01 | 0.00 | 85 | 1010.8 |
| 20260508072206 | 52 | 198 | 0.0 | 3.0 | 0.00 | 0.01 | 0.00 | 85 | 1010.7 |
| 20260508071705 | 52 | 259 | 1.0 | 6.0 | 0.00 | 0.01 | 0.00 | 85 | 1010.6 |
| 20260508071205 | 52 | 237 | 2.0 | 6.0 | 0.00 | 0.01 | 0.00 | 85 | 1010.6 |
| 20260508070205 | 52 | 322 | 2.0 | 3.0 | 0.00 | 0.01 | 0.00 | 85 | 1010.3 |
| 20260508065705 | 52 | 298 | 1.0 | 6.0 | 0.00 | 0.01 | 0.00 | 86 | 1010.3 |
| 20260508064705 | 52 | 5 | 1.0 | 3.0 | 0.00 | 0.01 | 0.00 | 85 | 1010.1 |
| 20260508064206 | 52 | 280 | 2.0 | 5.0 | 0.00 | 0.01 | 0.00 | 85 | 1010.0 |
| 20260508063707 | 52 | 332 | 0.0 | 5.0 | 0.00 | 0.01 | 0.00 | 85 | 1010.0 |
| 20260508063205 | 52 | 226 | 1.0 | 5.0 | 0.00 | 0.01 | 0.00 | 85 | 1010.0 |
| 20260508062705 | 53 | 281 | 1.0 | 3.0 | 0.00 | 0.01 | 0.00 | 85 | 1010.0 |
| 20260508061706 | 53 | 289 | 0.0 | 7.0 | 0.00 | 0.01 | 0.00 | 85 | 1010.0 |
| 20260508061206 | 53 | 267 | 2.0 | 7.0 | 0.00 | 0.02 | 0.00 | 84 | 1010.1 |
| 20260508060705 | 53 | 271 | 1.0 | 3.0 | 0.00 | 0.02 | 0.00 | 84 | 1010.1 |
| 20260508060206 | 53 | 270 | 4.0 | 7.0 | 0.00 | 0.02 | 0.00 | 85 | 1010.1 |
| 20260508055706 | 53 | 271 | 2.0 | 6.0 | 0.00 | 0.02 | 0.00 | 84 | 1010.1 |
| 20260508055205 | 53 | 245 | 1.0 | 6.0 | 0.00 | 0.03 | 0.00 | 84 | 1010.1 |
| 20260508054706 | 53 | 247 | 1.0 | 5.0 | 0.00 | 0.05 | 0.00 | 83 | 1010.1 |
| 20260508053706 | 53 | 254 | 2.0 | 9.0 | 0.00 | 0.08 | 0.00 | 82 | 1010.1 |
| 20260508053205 | 53 | 238 | 2.0 | 9.0 | 0.00 | 0.12 | 0.00 | 82 | 1010.0 |
| 20260508052705 | 53 | 232 | 5.0 | 10.0 | 0.00 | 0.13 | 0.00 | 82 | 1010.1 |
| 20260508052205 | 53 | 262 | 2.0 | 8.0 | 0.00 | 0.14 | 0.00 | 82 | 1010.2 |
| 20260508051706 | 54 | 231 | 2.0 | 9.0 | 0.00 | 0.16 | 0.00 | 82 | 1010.2 |
| 20260508051205 | 54 | 237 | 2.0 | 9.0 | 0.00 | 0.16 | 0.00 | 82 | 1010.2 |
| 20260508050206 | 54 | 238 | 2.0 | 6.0 | 0.00 | 0.16 | 0.00 | 82 | 1010.1 |
| 20260508045205 | 54 | 260 | 2.0 | 7.0 | 0.00 | 0.16 | 0.00 | 82 | 1010.1 |
| 20260508044205 | 54 | 289 | 2.0 | 9.0 | 0.00 | 0.16 | 0.00 | 82 | 1010.1 |
| 20260508043705 | 54 | 242 | 2.0 | 10.0 | 0.00 | 0.16 | 0.00 | 82 | 1009.9 |
| 20260508043205 | 54 | 263 | 4.0 | 10.0 | 0.00 | 0.16 | 0.00 | 82 | 1009.9 |
| 20260508042706 | 54 | 243 | 2.0 | 12.0 | 0.00 | 0.16 | 0.00 | 83 | 1009.9 |
| 20260508042206 | 54 | 258 | 3.0 | 10.0 | 0.00 | 0.16 | 0.00 | 83 | 1009.9 |
| 20260508041705 | 53 | 245 | 3.0 | 9.0 | 0.00 | 0.16 | 0.00 | 83 | 1009.8 |
| 20260508040705 | 53 | 255 | 3.0 | 8.0 | 0.00 | 0.16 | 0.00 | 84 | 1009.7 |
| 20260508040205 | 53 | 239 | 3.0 | 8.0 | 0.00 | 0.16 | 0.00 | 83 | 1009.7 |
| 20260508035706 | 53 | 302 | 0.0 | 5.0 | 0.00 | 0.16 | 0.16 | 83 | 1009.7 |
| 20260508035205 | 53 | 222 | 1.0 | 3.0 | 0.00 | 0.16 | 0.16 | 83 | 1009.6 |
| 20260508034705 | 52 | 317 | 1.0 | 3.0 | 0.00 | 0.16 | 0.16 | 82 | 1009.7 |
| 20260508033205 | 52 | 280 | 3.0 | 7.0 | 0.00 | 0.16 | 0.16 | 81 | 1009.6 |
| 20260508032706 | 52 | 237 | 2.0 | 7.0 | 0.00 | 0.16 | 0.16 | 81 | 1009.5 |
| 20260508032205 | 52 | 282 | 3.0 | 6.0 | 0.00 | 0.16 | 0.16 | 81 | 1009.6 |
| 20260508031206 | 52 | 255 | 2.0 | 7.0 | 0.00 | 0.16 | 0.16 | 81 | 1009.8 |
| 20260508024205 | 52 | 251 | 1.0 | 7.0 | 0.00 | 0.16 | 0.16 | 78 | 1009.8 |
| 20260508023705 | 52 | 237 | 2.0 | 9.0 | 0.00 | 0.16 | 0.16 | 78 | 1009.7 |
| 20260508021705 | 51 | 239 | 2.0 | 7.0 | 0.00 | 0.16 | 0.16 | 78 | 1009.6 |
| 20260508021205 | 51 | 222 | 2.0 | 5.0 | 0.00 | 0.16 | 0.16 | 78 | 1009.6 |
| 20260508020705 | 51 | 100 | 2.0 | 6.0 | 0.00 | 0.16 | 0.16 | 78 | 1009.6 |
| 20260508020206 | 51 | 274 | 3.0 | 7.0 | 0.00 | 0.16 | 0.16 | 78 | 1009.6 |
| 20260508015705 | 51 | 244 | 2.0 | 9.0 | 0.00 | 0.16 | 0.16 | 78 | 1009.5 |
| 20260508014706 | 51 | 2 | 1.0 | 5.0 | 0.00 | 0.16 | 0.16 | 78 | 1009.7 |
| 20260508013705 | 51 | 197 | 1.0 | 2.0 | 0.00 | 0.16 | 0.16 | 78 | 1009.5 |
| 20260508012705 | 51 | 244 | 4.0 | 7.0 | 0.00 | 0.16 | 0.16 | 78 | 1009.3 |
| 20260508012205 | 51 | 290 | 1.0 | 6.0 | 0.00 | 0.16 | 0.16 | 78 | 1009.3 |
| 20260508011705 | 51 | 289 | 2.0 | 5.0 | 0.00 | 0.16 | 0.16 | 78 | 1009.2 |
| 20260508010705 | 51 | 286 | 3.0 | 7.0 | 0.00 | 0.16 | 0.16 | 77 | 1008.9 |
| 20260508010205 | 51 | 245 | 3.0 | 8.0 | 0.00 | 0.16 | 0.16 | 77 | 1008.9 |
| 20260508005205 | 51 | 232 | 5.0 | 8.0 | 0.00 | 0.16 | 0.16 | 76 | 1008.9 |
| 20260508004705 | 52 | 244 | 6.0 | 8.0 | 0.00 | 0.16 | 0.16 | 76 | 1008.9 |
| 20260508004205 | 52 | 237 | 5.0 | 8.0 | 0.00 | 0.16 | 0.16 | 75 | 1008.9 |
| 20260508003706 | 52 | 230 | 6.0 | 8.0 | 0.00 | 0.16 | 0.16 | 75 | 1008.8 |
| 20260508002705 | 52 | 234 | 6.0 | 9.0 | 0.00 | 0.16 | 0.16 | 73 | 1008.7 |
| 20260508002205 | 53 | 217 | 7.0 | 9.0 | 0.00 | 0.16 | 0.16 | 73 | 1008.6 |
| 20260508001705 | 53 | 219 | 7.0 | 10.0 | 0.00 | 0.16 | 0.16 | 72 | 1008.6 |
| 20260508001205 | 53 | 222 | 7.0 | 9.0 | 0.00 | 0.16 | 0.16 | 71 | 1008.4 |
| 20260507235705 | 54 | 217 | 7.0 | 10.0 | 0.00 | 0.16 | 0.16 | 70 | 1008.3 |
| 20260507235205 | 54 | 226 | 8.0 | 12.0 | 0.00 | 0.16 | 0.16 | 70 | 1008.3 |
| 20260507234705 | 54 | 220 | 9.0 | 12.0 | 0.00 | 0.16 | 0.16 | 70 | 1008.3 |
| 20260507234205 | 55 | 217 | 9.0 | 12.0 | 0.00 | 0.16 | 0.16 | 69 | 1008.1 |
| 20260507233705 | 55 | 220 | 9.0 | 12.0 | 0.00 | 0.16 | 0.16 | 69 | 1008.0 |
| 20260507233205 | 55 | 213 | 10.0 | 14.0 | 0.00 | 0.16 | 0.16 | 68 | 1008.0 |
| 20260507232205 | 55 | 217 | 10.0 | 12.0 | 0.00 | 0.16 | 0.16 | 69 | 1007.9 |
| 20260507231205 | 56 | 224 | 8.0 | 12.0 | 0.00 | 0.16 | 0.16 | 69 | 1007.9 |
| 20260507230705 | 56 | 212 | 11.0 | 14.0 | 0.00 | 0.16 | 0.16 | 69 | 1007.8 |
| 20260507230205 | 56 | 219 | 12.0 | 16.0 | 0.00 | 0.16 | 0.16 | 68 | 1007.8 |
| 20260507224705 | 57 | 198 | 10.0 | 15.0 | 0.00 | 0.16 | 0.16 | 68 | 1007.8 |
| 20260507224205 | 57 | 207 | 12.0 | 15.0 | 0.00 | 0.16 | 0.16 | 66 | 1007.8 |
| 20260507223705 | 57 | 200 | 12.0 | 15.0 | 0.00 | 0.16 | 0.16 | 67 | 1007.6 |
| 20260507223205 | 57 | 199 | 12.0 | 17.0 | 0.00 | 0.16 | 0.16 | 67 | 1007.7 |
| 20260507222205 | 58 | 202 | 11.0 | 14.0 | 0.00 | 0.16 | 0.16 | 66 | 1007.6 |
| 20260507221705 | 58 | 221 | 9.0 | 15.0 | 0.00 | 0.16 | 0.16 | 63 | 1007.6 |
| 20260507221205 | 58 | 193 | 9.0 | 12.0 | 0.00 | 0.16 | 0.16 | 62 | 1007.6 |
| 20260507220705 | 58 | 218 | 7.0 | 10.0 | 0.00 | 0.16 | 0.16 | 61 | 1007.7 |
| 20260507220205 | 59 | 207 | 6.0 | 12.0 | 0.00 | 0.16 | 0.16 | 60 | 1007.7 |
| 20260507215705 | 59 | 192 | 8.0 | 12.0 | 0.00 | 0.16 | 0.16 | 61 | 1007.8 |
| 20260507215205 | 59 | 213 | 8.0 | 12.0 | 0.00 | 0.16 | 0.16 | 60 | 1007.9 |
| 20260507214705 | 60 | 178 | 8.0 | 12.0 | 0.00 | 0.16 | 0.16 | 57 | 1007.9 |
| 20260507214205 | 60 | 206 | 6.0 | 10.0 | 0.00 | 0.16 | 0.16 | 60 | 1007.9 |
| 20260507213705 | 60 | 203 | 6.0 | 8.0 | 0.00 | 0.16 | 0.16 | 58 | 1007.9 |
| 20260507213205 | 60 | 205 | 5.0 | 7.0 | 0.00 | 0.16 | 0.16 | 58 | 1007.8 |
| 20260507212705 | 60 | 217 | 6.0 | 8.0 | 0.00 | 0.16 | 0.16 | 58 | 1007.7 |
| 20260507212205 | 60 | 177 | 6.0 | 8.0 | 0.00 | 0.16 | 0.16 | 61 | 1007.8 |
| 20260507211705 | 60 | 199 | 5.0 | 7.0 | 0.00 | 0.16 | 0.16 | 60 | 1007.6 |
| 20260507211205 | 60 | 201 | 6.0 | 10.0 | 0.00 | 0.16 | 0.16 | 60 | 1007.6 |
| 20260507210205 | 60 | 195 | 7.0 | 10.0 | 0.00 | 0.16 | 0.16 | 60 | 1007.9 |
| 20260507205705 | 60 | 218 | 7.0 | 10.0 | 0.00 | 0.16 | 0.16 | 62 | 1008.0 |
| 20260507205205 | 60 | 201 | 8.0 | 12.0 | 0.00 | 0.16 | 0.16 | 61 | 1007.9 |
| 20260507204705 | 60 | 193 | 6.0 | 10.0 | 0.00 | 0.16 | 0.16 | 60 | 1008.0 |
| 20260507204205 | 60 | 210 | 6.0 | 9.0 | 0.00 | 0.16 | 0.16 | 60 | 1007.8 |
| 20260507203205 | 60 | 194 | 8.0 | 10.0 | 0.00 | 0.16 | 0.16 | 61 | 1007.8 |
| 20260507202705 | 60 | 207 | 9.0 | 10.0 | 0.00 | 0.16 | 0.16 | 58 | 1007.7 |
| 20260507202205 | 60 | 174 | 0.0 | 5.0 | 0.00 | 0.16 | 0.16 | 57 | 1007.6 |
| 20260507201205 | 60 | 210 | 0.0 | 2.0 | 0.00 | 0.16 | 0.16 | 55 | 1007.7 |
| 20260507200705 | 60 | 256 | 2.0 | 3.0 | 0.00 | 0.16 | 0.16 | 60 | 1007.8 |
| 20260507200205 | 60 | 222 | 3.0 | 6.0 | 0.00 | 0.16 | 0.16 | 58 | 1008.0 |
| 20260507195704 | 60 | 233 | 2.0 | 3.0 | 0.00 | 0.16 | 0.16 | 56 | 1007.9 |
| 20260507195205 | 60 | 25 | 0.0 | 3.0 | 0.00 | 0.16 | 0.16 | 54 | 1007.3 |
| 20260507194705 | 60 | 265 | 0.0 | 3.0 | 0.00 | 0.16 | 0.16 | 55 | 1007.6 |
| 20260507194205 | 60 | 246 | 3.0 | 6.0 | 0.00 | 0.16 | 0.16 | 56 | 1008.0 |
| 20260507193705 | 60 | 229 | 3.0 | 7.0 | 0.00 | 0.16 | 0.16 | 56 | 1008.1 |
| 20260507192705 | 60 | 28 | 0.0 | 3.0 | 0.00 | 0.16 | 0.16 | 59 | 1008.2 |
| 20260507192205 | 59 | 80 | 0.0 | 0.0 | 0.00 | 0.16 | 0.16 | 53 | 1008.2 |
| 20260507191705 | 60 | 77 | 1.0 | 5.0 | 0.00 | 0.16 | 0.16 | 55 | 1008.2 |
| 20260507191205 | 60 | 68 | 5.0 | 7.0 | 0.00 | 0.16 | 0.16 | 54 | 1007.6 |
| 20260507185705 | 59 | 80 | 2.0 | 3.0 | 0.00 | 0.16 | 0.16 | 55 | 1008.5 |
| 20260507185205 | 59 | 75 | 1.0 | 7.0 | 0.00 | 0.16 | 0.16 | 57 | 1008.5 |
| 20260507184705 | 59 | 56 | 5.0 | 7.0 | 0.00 | 0.16 | 0.16 | 55 | 1008.5 |
| 20260507183705 | 59 | 294 | 3.0 | 6.0 | 0.00 | 0.16 | 0.16 | 55 | 1009.0 |
| 20260507183205 | 59 | 21 | 1.0 | 3.0 | 0.00 | 0.16 | 0.16 | 58 | 1008.8 |
| 20260507182205 | 59 | 79 | 1.0 | 3.0 | 0.00 | 0.16 | 0.16 | 63 | 1008.8 |
| 20260507181705 | 58 | 217 | 1.0 | 3.0 | 0.00 | 0.16 | 0.16 | 58 | 1008.9 |
| 20260507181205 | 58 | 359 | 1.0 | 3.0 | 0.00 | 0.16 | 0.16 | 62 | 1008.9 |
| 20260507180705 | 58 | 87 | 1.0 | 3.0 | 0.00 | 0.16 | 0.16 | 64 | 1008.9 |
| 20260507180204 | 58 | 55 | 1.0 | 3.0 | 0.00 | 0.16 | 0.16 | 66 | 1009.2 |
| 20260507175705 | 57 | 76 | 1.0 | 3.0 | 0.00 | 0.16 | 0.16 | 61 | 1009.4 |
| 20260507175204 | 57 | 53 | 3.0 | 5.0 | 0.00 | 0.16 | 0.16 | 66 | 1009.2 |
| 20260507174705 | 57 | 5 | 0.0 | 3.0 | 0.00 | 0.16 | 0.16 | 65 | 1009.6 |
| 20260507174205 | 57 | 24 | 1.0 | 5.0 | 0.00 | 0.16 | 0.16 | 66 | 1009.4 |
| 20260507173705 | 57 | 354 | 1.0 | 3.0 | 0.00 | 0.16 | 0.16 | 68 | 1009.7 |
| 20260507173205 | 57 | 351 | 1.0 | 3.0 | 0.00 | 0.16 | 0.16 | 68 | 1009.7 |
| 20260507172705 | 57 | 309 | 2.0 | 3.0 | 0.00 | 0.16 | 0.16 | 67 | 1009.7 |
| 20260507172205 | 57 | 346 | 3.0 | 5.0 | 0.00 | 0.16 | 0.16 | 61 | 1009.4 |
| 20260507170705 | 57 | 335 | 4.0 | 7.0 | 0.00 | 0.16 | 0.16 | 63 | 1009.5 |
| 20260507170205 | 57 | 356 | 2.0 | 5.0 | 0.00 | 0.16 | 0.16 | 64 | 1009.7 |
| 20260507165705 | 57 | 345 | 2.0 | 7.0 | 0.00 | 0.16 | 0.16 | 61 | 1009.7 |
| 20260507165204 | 57 | 335 | 3.0 | 6.0 | 0.00 | 0.16 | 0.16 | 60 | 1009.8 |
| 20260507164705 | 57 | 353 | 1.0 | 3.0 | 0.00 | 0.16 | 0.16 | 61 | 1010.0 |
| 20260507164205 | 57 | 37 | 1.0 | 3.0 | 0.00 | 0.16 | 0.16 | 61 | 1010.1 |
| 20260507163705 | 57 | 344 | 3.0 | 9.0 | 0.00 | 0.16 | 0.16 | 61 | 1010.2 |
| 20260507163204 | 57 | 321 | 2.0 | 8.0 | 0.00 | 0.16 | 0.16 | 61 | 1010.0 |
| 20260507162705 | 57 | 351 | 5.0 | 9.0 | 0.00 | 0.16 | 0.16 | 60 | 1010.0 |
| 20260507161705 | 57 | 1 | 2.0 | 5.0 | 0.00 | 0.16 | 0.16 | 63 | 1010.4 |
| 20260507161205 | 56 | 11 | 3.0 | 7.0 | 0.00 | 0.16 | 0.16 | 62 | 1010.3 |
| 20260507160705 | 56 | 2 | 1.0 | 6.0 | 0.00 | 0.17 | 0.16 | 62 | 1010.5 |
| 20260507155705 | 56 | 356 | 0.0 | 3.0 | 0.00 | 0.18 | 0.16 | 60 | 1010.6 |
| 20260507155205 | 57 | 337 | 2.0 | 5.0 | 0.00 | 0.18 | 0.16 | 59 | 1010.4 |
| 20260507154705 | 57 | 8 | 2.0 | 7.0 | 0.00 | 0.18 | 0.16 | 60 | 1010.6 |
| 20260507154205 | 57 | 8 | 1.0 | 7.0 | 0.00 | 0.18 | 0.16 | 58 | 1010.5 |
| 20260507153205 | 57 | 15 | 3.0 | 9.0 | 0.00 | 0.18 | 0.16 | 59 | 1010.5 |
| 20260507152204 | 57 | 28 | 5.0 | 10.0 | 0.00 | 0.18 | 0.16 | 60 | 1010.7 |
| 20260507151705 | 57 | 28 | 5.0 | 10.0 | 0.00 | 0.18 | 0.16 | 60 | 1010.7 |
| 20260507151205 | 57 | 28 | 5.0 | 10.0 | 0.00 | 0.19 | 0.16 | 59 | 1010.6 |
| 20260507150705 | 57 | 306 | 1.0 | 6.0 | 0.00 | 0.19 | 0.16 | 58 | 1010.7 |
| 20260507150205 | 57 | 344 | 5.0 | 10.0 | 0.00 | 0.19 | 0.16 | 59 | 1010.7 |
| 20260507145705 | 57 | 14 | 2.0 | 7.0 | 0.00 | 0.20 | 0.16 | 58 | 1010.8 |
| 20260507145205 | 57 | 350 | 3.0 | 9.0 | 0.00 | 0.20 | 0.16 | 58 | 1010.9 |
| 20260507144705 | 57 | 24 | 3.0 | 12.0 | 0.00 | 0.21 | 0.16 | 59 | 1010.9 |
| 20260507144205 | 57 | 11 | 4.0 | 8.0 | 0.00 | 0.21 | 0.16 | 61 | 1010.9 |
| 20260507143205 | 57 | 24 | 7.0 | 12.0 | 0.00 | 0.21 | 0.16 | 59 | 1011.0 |
| 20260507142705 | 57 | 341 | 5.0 | 10.0 | 0.00 | 0.21 | 0.16 | 59 | 1011.0 |
| 20260507142205 | 57 | 343 | 4.0 | 12.0 | 0.00 | 0.21 | 0.16 | 60 | 1010.9 |
| 20260507141705 | 57 | 6 | 5.0 | 10.0 | 0.00 | 0.21 | 0.16 | 61 | 1011.0 |